Location: Amsterdam
(30.7274°N, 84.4357°W)
Time: 20:18:03
(UTC+00:00)

Explorer 7 - Visible Passes

Search period start: 15 February 2026 00:00
Search period end: 25 February 2026 00:00
Orbit: 431 x 545 km, 50.2° (Epoch: 15 February)

Date Brightness Start Highest point End Pass type
(mag) Time Alt. Az. Time Alt. Az. Time Alt. Az.
21 Feb 9.0 01:17:34 10° NNW 01:18:29 14° N 01:18:29 14° N visible
22 Feb 8.3 00:51:53 10° NNW 00:54:11 20° NNE 00:54:11 20° NNE visible
23 Feb 8.2 00:26:11 10° NNW 00:29:00 20° NE 00:29:58 18° NE visible
23 Feb 9.7 02:03:51 10° WNW 02:04:22 13° WNW 02:04:22 13° WNW visible
24 Feb 8.3 00:00:27 10° NNW 00:03:10 19° NNE 00:05:53 10° E visible
24 Feb 8.4 01:38:02 10° WNW 01:40:17 31° WNW 01:40:17 31° WNW visible
